Time,TemperatureF,DewpointF,PressureIn,WindDirection,WindDirectionDegrees,WindSpeedMPH,WindSpeedGustMPH,Humidity,HourlyPrecipIn,Conditions,Clouds,dailyrainin,SoftwareType,DateUTC
2013-03-03 00:00:00,41.6,19.7,30.17,SSE,163,7.0,12.0,41,0.00,,OVC120,0.00,VWS V14.01,2013-03-03 07:00:00,
2013-03-03 00:04:00,42.1,19.5,30.19,SE,132,7.0,11.0,40,0.00,,CLR,0.00,VWS V14.01,2013-03-03 07:04:00,
2013-03-03 00:09:00,42.4,19.8,30.19,SSE,147,9.0,11.0,40,0.00,,CLR,0.00,VWS V14.01,2013-03-03 07:09:00,
2013-03-03 00:14:00,42.4,19.8,30.19,SSE,158,4.0,14.0,40,0.00,,CLR,0.00,VWS V14.01,2013-03-03 07:14:00,
2013-03-03 00:19:00,42.3,19.7,30.18,ESE,113,9.0,14.0,40,0.00,,CLR,0.00,VWS V14.01,2013-03-03 07:19:00,
2013-03-03 00:24:00,42.1,19.5,30.18,SSE,149,5.0,14.0,40,0.00,,CLR,0.00,VWS V14.01,2013-03-03 07:24:00,
2013-03-03 00:29:00,42.1,19.5,30.18,SE,129,7.0,14.0,40,0.00,,CLR,0.00,VWS V14.01,2013-03-03 07:29:00,
2013-03-03 00:30:00,41.7,19.8,30.15,ESE,122,8.0,11.0,41,0.00,,OVC120,0.00,VWS V14.01,2013-03-03 07:30:00,
2013-03-03 00:34:00,41.7,19.8,30.18,SE,130,7.0,10.0,41,0.00,,CLR,0.00,VWS V14.01,2013-03-03 07:34:00,
2013-03-03 00:39:00,41.6,19.7,30.18,SSE,150,8.0,11.0,41,0.00,,CLR,0.00,VWS V14.01,2013-03-03 07:39:00,
2013-03-03 00:44:00,41.7,19.8,30.17,ESE,122,9.0,12.0,41,0.00,,CLR,0.00,VWS V14.01,2013-03-03 07:44:00,
2013-03-03 00:49:00,41.6,19.7,30.17,SE,138,7.0,12.0,41,0.00,,CLR,0.00,VWS V14.01,2013-03-03 07:49:00,
2013-03-03 00:54:00,41.6,19.7,30.17,SSE,154,10.0,12.0,41,0.00,,CLR,0.00,VWS V14.01,2013-03-03 07:54:00,
2013-03-03 00:59:00,41.6,19.7,30.17,SE,124,7.0,7.0,41,0.00,,CLR,0.00,VWS V14.01,2013-03-03 07:59:00,
2013-03-03 01:00:00,38.4,18.9,30.14,NW,309,0.0,9.0,45,0.00,,OVC120,0.00,VWS V14.01,2013-03-03 08:00:00,
2013-03-03 01:05:00,41.7,19.8,30.16,SE,124,10.0,10.0,41,0.00,,CLR,0.00,VWS V14.01,2013-03-03 08:05:00,
2013-03-03 01:10:00,41.6,19.7,30.16,SE,129,5.0,11.0,41,0.00,,CLR,0.00,VWS V14.01,2013-03-03 08:10:00,
2013-03-03 01:19:00,41.6,19.7,30.16,SE,135,5.0,11.0,41,0.00,,CLR,0.00,VWS V14.01,2013-03-03 08:19:00,
2013-03-03 01:24:00,41.7,19.8,30.15,South,191,3.0,11.0,41,0.00,,CLR,0.00,VWS V14.01,2013-03-03 08:24:00,
2013-03-03 01:29:00,41.7,19.8,30.15,SSW,210,6.0,11.0,41,0.00,,CLR,0.00,VWS V14.01,2013-03-03 08:29:00,
2013-03-03 01:30:00,34.1,19.2,30.12,ESE,117,0.0,6.0,54,0.00,,OVC120,0.00,VWS V14.01,2013-03-03 08:30:00,
2013-03-03 01:34:00,41.5,19.6,30.15,South,182,2.0,8.0,41,0.00,,CLR,0.00,VWS V14.01,2013-03-03 08:34:00,
2013-03-03 01:39:00,41.0,19.1,30.14,SSE,166,4.0,8.0,41,0.00,,CLR,0.00,VWS V14.01,2013-03-03 08:39:00,
2013-03-03 01:44:00,40.9,19.6,30.14,SE,124,6.0,9.0,42,0.00,,CLR,0.00,VWS V14.01,2013-03-03 08:44:00,
2013-03-03 01:49:00,40.8,19.5,30.14,SSE,163,3.0,9.0,42,0.00,,CLR,0.00,VWS V14.01,2013-03-03 08:49:00,
2013-03-03 01:54:00,40.4,19.1,30.14,West,262,1.0,9.0,42,0.00,,CLR,0.00,VWS V14.01,2013-03-03 08:54:00,
2013-03-03 01:59:00,38.4,18.9,30.14,West,277,0.0,9.0,45,0.00,,CLR,0.00,VWS V14.01,2013-03-03 08:59:00,
2013-03-03 02:00:00,33.2,19.2,30.11,North,351,0.0,3.0,56,0.00,,OVC120,0.00,VWS V14.01,2013-03-03 09:00:00,
2013-03-03 02:04:00,36.9,19.1,30.13,East,98,0.0,1.0,48,0.00,,CLR,0.00,VWS V14.01,2013-03-03 09:04:00,
2013-03-03 02:09:00,35.6,18.8,30.13,NW,310,0.0,1.0,50,0.00,,CLR,0.00,VWS V14.01,2013-03-03 09:09:00,
2013-03-03 02:14:00,35.0,19.2,30.13,NW,309,0.0,1.0,52,0.00,,CLR,0.00,VWS V14.01,2013-03-03 09:14:00,
2013-03-03 02:19:00,34.5,19.1,30.13,NW,316,2.0,3.0,53,0.00,,CLR,0.00,VWS V14.01,2013-03-03 09:19:00,
2013-03-03 02:24:00,34.3,19.0,30.12,WNW,285,2.0,3.0,53,0.00,,CLR,0.00,VWS V14.01,2013-03-03 09:24:00,
2013-03-03 02:29:00,34.0,19.1,30.12,ESE,117,1.0,1.0,54,0.00,,CLR,0.00,VWS V14.01,2013-03-03 09:29:00,
2013-03-03 02:30:00,31.8,19.5,30.09,East,86,0.0,2.0,60,0.00,,OVC120,0.00,VWS V14.01,2013-03-03 09:30:00,
2013-03-03 02:34:00,33.7,19.3,30.11,North,11,1.0,3.0,55,0.00,,CLR,0.00,VWS V14.01,2013-03-03 09:34:00,
2013-03-03 02:39:00,33.6,19.2,30.11,SE,125,0.0,3.0,55,0.00,,CLR,0.00,VWS V14.01,2013-03-03 09:39:00,
2013-03-03 02:44:00,33.4,19.4,30.11,SSE,158,0.0,3.0,56,0.00,,CLR,0.00,VWS V14.01,2013-03-03 09:44:00,
2013-03-03 02:49:00,33.2,19.2,30.11,SSW,193,0.0,3.0,56,0.00,,CLR,0.00,VWS V14.01,2013-03-03 09:49:00,
2013-03-03 02:54:00,33.3,19.3,30.11,ESE,114,0.0,3.0,56,0.00,,CLR,0.00,VWS V14.01,2013-03-03 09:54:00,
2013-03-03 02:59:00,33.2,19.2,30.11,North,352,0.0,0.0,56,0.00,,CLR,0.00,VWS V14.01,2013-03-03 09:59:00,
2013-03-03 03:00:00,32.3,19.2,30.08,ENE,76,0.0,3.0,58,0.00,,OVC120,0.00,VWS V14.01,2013-03-03 10:00:00,
2013-03-03 03:04:00,32.9,19.4,30.11,NNW,334,0.0,0.0,57,0.00,,CLR,0.00,VWS V14.01,2013-03-03 10:04:00,
2013-03-03 03:09:00,32.5,19.0,30.11,SSE,166,0.0,0.0,57,0.00,,CLR,0.00,VWS V14.01,2013-03-03 10:09:00,
2013-03-03 03:15:00,32.1,19.4,30.10,SSE,164,0.0,0.0,59,0.00,,CLR,0.00,VWS V14.01,2013-03-03 10:15:00,
2013-03-03 03:20:00,32.0,19.3,30.10,SSE,148,0.0,0.0,59,0.00,,CLR,0.00,VWS V14.01,2013-03-03 10:20:00,
2013-03-03 03:25:00,31.9,19.2,30.10,SSW,198,0.0,0.0,59,0.00,,CLR,0.00,VWS V14.01,2013-03-03 10:25:00,
2013-03-03 03:30:00,31.8,19.5,30.09,East,87,0.0,0.0,60,0.00,,CLR,0.00,VWS V14.01,2013-03-03 10:30:00,
2013-03-03 03:35:00,31.5,19.2,30.09,ESE,114,0.0,1.0,60,0.00,,CLR,0.00,VWS V14.01,2013-03-03 10:35:00,
2013-03-03 03:40:00,32.0,19.7,30.09,ESE,109,0.0,2.0,60,0.00,,CLR,0.00,VWS V14.01,2013-03-03 10:40:00,
2013-03-03 03:45:00,32.0,19.3,30.09,East,86,2.0,3.0,59,0.00,,CLR,0.00,VWS V14.01,2013-03-03 10:45:00,
2013-03-03 03:50:00,32.3,19.6,30.08,ENE,77,0.0,3.0,59,0.00,,CLR,0.00,VWS V14.01,2013-03-03 10:50:00,
2013-03-03 03:55:00,32.3,19.6,30.09,ENE,77,0.0,3.0,59,0.00,,CLR,0.00,VWS V14.01,2013-03-03 10:55:00,
2013-03-03 04:00:00,32.3,19.2,30.09,ENE,77,0.0,0.0,58,0.00,,CLR,0.00,VWS V14.01,2013-03-03 11:00:00,
2013-03-03 04:05:00,32.3,19.2,30.08,ENE,77,0.0,0.0,58,0.00,,CLR,0.00,VWS V14.01,2013-03-03 11:05:00,
2013-03-03 04:10:00,32.2,19.5,30.08,ESE,105,2.0,2.0,59,0.00,,CLR,0.00,VWS V14.01,2013-03-03 11:10:00,
2013-03-03 04:15:00,32.5,19.8,30.08,East,98,0.0,2.0,59,0.00,,CLR,0.00,VWS V14.01,2013-03-03 11:15:00,
2013-03-03 04:20:00,32.4,19.7,30.08,East,101,2.0,2.0,59,0.00,,CLR,0.00,VWS V14.01,2013-03-03 11:20:00,
2013-03-03 04:25:00,32.7,19.6,30.08,ESE,111,3.0,4.0,58,0.00,,CLR,0.00,VWS V14.01,2013-03-03 11:25:00,
2013-03-03 04:30:00,32.7,20.0,30.08,ESE,114,3.0,3.0,59,0.00,,CLR,0.00,VWS V14.01,2013-03-03 11:30:00,
2013-03-03 04:35:00,33.2,20.0,30.08,East,92,3.0,4.0,58,0.00,,CLR,0.00,VWS V14.01,2013-03-03 11:35:00,
2013-03-03 04:40:00,33.6,20.0,30.08,ESE,109,3.0,4.0,57,0.00,,CLR,0.00,VWS V14.01,2013-03-03 11:40:00,
2013-03-03 04:45:00,33.6,20.0,30.07,ESE,114,3.0,4.0,57,0.00,,CLR,0.00,VWS V14.01,2013-03-03 11:45:00,
2013-03-03 04:50:00,34.1,20.1,30.07,ESE,116,2.0,4.0,56,0.00,,CLR,0.00,VWS V14.01,2013-03-03 11:50:00,
2013-03-03 04:56:00,34.1,20.1,30.07,ESE,119,2.0,4.0,56,0.00,,CLR,0.00,VWS V14.01,2013-03-03 11:56:00,
2013-03-03 05:00:00,33.0,19.9,30.05,ESE,105,3.0,5.0,58,0.00,,OVC120,0.00,VWS V14.01,2013-03-03 12:00:00,
2013-03-03 05:01:00,33.9,19.9,30.07,ESE,123,2.0,2.0,56,0.00,,CLR,0.00,VWS V14.01,2013-03-03 12:01:00,
2013-03-03 05:06:00,33.8,19.8,30.07,ESE,114,2.0,3.0,56,0.00,,CLR,0.00,VWS V14.01,2013-03-03 12:06:00,
2013-03-03 05:11:00,33.9,19.9,30.07,ESE,113,4.0,4.0,56,0.00,,CLR,0.00,VWS V14.01,2013-03-03 12:11:00,
2013-03-03 05:16:00,34.0,20.0,30.06,ESE,117,5.0,5.0,56,0.00,,CLR,0.00,VWS V14.01,2013-03-03 12:16:00,
2013-03-03 05:21:00,33.7,19.7,30.06,ESE,109,2.0,5.0,56,0.00,,CLR,0.00,VWS V14.01,2013-03-03 12:21:00,
2013-03-03 05:26:00,33.3,19.7,30.07,ESE,117,4.0,5.0,57,0.00,,CLR,0.00,VWS V14.01,2013-03-03 12:26:00,
2013-03-03 05:30:00,33.8,20.2,30.04,SE,125,3.0,4.0,57,0.00,,OVC120,0.00,VWS V14.01,2013-03-03 12:30:00,
2013-03-03 05:31:00,33.2,19.6,30.06,ESE,121,4.0,5.0,57,0.00,,CLR,0.00,VWS V14.01,2013-03-03 12:31:00,
2013-03-03 05:36:00,32.9,19.4,30.06,ESE,122,3.0,5.0,57,0.00,,CLR,0.00,VWS V14.01,2013-03-03 12:36:00,
2013-03-03 05:41:00,32.8,19.7,30.06,ESE,105,3.0,5.0,58,0.00,,CLR,0.00,VWS V14.01,2013-03-03 12:41:00,
2013-03-03 05:46:00,32.5,19.8,30.06,SE,124,3.0,5.0,59,0.00,,CLR,0.00,VWS V14.01,2013-03-03 12:46:00,
2013-03-03 05:51:00,32.6,19.9,30.06,East,90,3.0,5.0,59,0.00,,CLR,0.00,VWS V14.01,2013-03-03 12:51:00,
2013-03-03 05:56:00,32.9,19.8,30.05,SE,131,4.0,5.0,58,0.00,,CLR,0.00,VWS V14.01,2013-03-03 12:56:00,
2013-03-03 06:00:00,34.5,20.4,30.03,SE,129,2.0,5.0,56,0.00,,OVC120,0.00,VWS V14.01,2013-03-03 13:00:00,
2013-03-03 06:01:00,33.0,19.9,30.05,ESE,104,3.0,4.0,58,0.00,,CLR,0.00,VWS V14.01,2013-03-03 13:01:00,
2013-03-03 06:06:00,33.3,19.7,30.05,SE,130,3.0,4.0,57,0.00,,CLR,0.00,VWS V14.01,2013-03-03 13:06:00,
2013-03-03 06:11:00,33.3,19.7,30.05,ESE,105,2.0,4.0,57,0.00,,CLR,0.00,VWS V14.01,2013-03-03 13:11:00,
2013-03-03 06:16:00,33.6,20.0,30.05,ESE,120,4.0,4.0,57,0.00,,CLR,0.00,VWS V14.01,2013-03-03 13:16:00,
2013-03-03 06:21:00,33.8,20.2,30.04,ESE,107,4.0,4.0,57,0.00,,CLR,0.00,VWS V14.01,2013-03-03 13:21:00,
2013-03-03 06:26:00,33.8,20.2,30.04,ESE,120,2.0,4.0,57,0.00,,CLR,0.00,VWS V14.01,2013-03-03 13:26:00,
2013-03-03 06:30:00,37.0,21.5,30.03,ESE,105,0.0,3.0,53,0.00,,OVC120,0.00,VWS V14.01,2013-03-03 13:30:00,
2013-03-03 06:31:00,33.9,19.9,30.04,ESE,118,2.0,4.0,56,0.00,,CLR,0.00,VWS V14.01,2013-03-03 13:31:00,
2013-03-03 06:36:00,33.8,19.8,30.04,ESE,123,3.0,4.0,56,0.00,,CLR,0.00,VWS V14.01,2013-03-03 13:36:00,
2013-03-03 06:41:00,33.6,20.0,30.03,SE,124,4.0,5.0,57,0.00,,CLR,0.00,VWS V14.01,2013-03-03 13:41:00,
2013-03-03 06:46:00,33.7,20.1,30.03,ESE,122,3.0,5.0,57,0.00,,CLR,0.00,VWS V14.01,2013-03-03 13:46:00,
2013-03-03 06:51:00,33.9,20.3,30.03,ESE,109,2.0,5.0,57,0.00,,CLR,0.00,VWS V14.01,2013-03-03 13:51:00,
2013-03-03 06:57:00,34.4,20.3,30.03,ESE,121,2.0,5.0,56,0.00,,CLR,0.00,VWS V14.01,2013-03-03 13:57:00,
2013-03-03 07:00:00,41.6,20.8,30.02,East,86,0.0,1.0,43,0.00,,OVC120,0.00,VWS V14.01,2013-03-03 14:00:00,
2013-03-03 07:02:00,34.7,20.6,30.03,SSW,198,2.0,2.0,56,0.00,,CLR,0.00,VWS V14.01,2013-03-03 14:02:00,
2013-03-03 07:07:00,34.8,20.7,30.03,SE,132,2.0,3.0,56,0.00,,CLR,0.00,VWS V14.01,2013-03-03 14:07:00,
2013-03-03 07:12:00,34.9,20.8,30.03,SE,127,1.0,3.0,56,0.00,,CLR,0.00,VWS V14.01,2013-03-03 14:12:00,
2013-03-03 07:17:00,35.4,20.9,30.03,ESE,119,0.0,3.0,55,0.00,,CLR,0.00,VWS V14.01,2013-03-03 14:17:00,
2013-03-03 07:22:00,36.4,20.9,30.03,ESE,118,0.0,3.0,53,0.00,,CLR,0.00,VWS V14.01,2013-03-03 14:22:00,
2013-03-03 07:27:00,37.0,21.5,30.03,ESE,108,0.0,3.0,53,0.00,,CLR,0.00,VWS V14.01,2013-03-03 14:27:00,
2013-03-03 07:30:00,42.7,22.3,30.01,North,5,2.0,3.0,44,0.00,,OVC120,0.00,VWS V14.01,2013-03-03 14:30:00,
2013-03-03 07:32:00,37.2,21.7,30.03,ESE,117,0.0,0.0,53,0.00,,CLR,0.00,VWS V14.01,2013-03-03 14:32:00,
2013-03-03 07:37:00,38.1,22.0,30.03,ESE,121,0.0,0.0,52,0.00,,CLR,0.00,VWS V14.01,2013-03-03 14:37:00,
2013-03-03 07:42:00,38.7,21.2,30.03,ESE,108,0.0,0.0,49,0.00,,CLR,0.00,VWS V14.01,2013-03-03 14:42:00,
2013-03-03 07:47:00,39.5,21.5,30.02,ESE,109,0.0,0.0,48,0.00,,CLR,0.00,VWS V14.01,2013-03-03 14:47:00,
2013-03-03 07:52:00,41.1,21.4,30.02,ESE,103,0.0,0.0,45,0.00,,CLR,0.00,VWS V14.01,2013-03-03 14:52:00,
2013-03-03 07:57:00,41.5,20.7,30.02,East,86,0.0,1.0,43,0.00,,CLR,0.00,VWS V14.01,2013-03-03 14:57:00,
2013-03-03 08:00:00,46.6,21.1,29.98,NNE,30,1.0,4.0,36,0.00,,OVC120,0.00,VWS V14.01,2013-03-03 15:00:00,
2013-03-03 08:02:00,41.8,20.4,30.02,ENE,76,0.0,0.0,42,0.00,,CLR,0.00,VWS V14.01,2013-03-03 15:02:00,
2013-03-03 08:07:00,42.1,20.7,30.01,NE,49,0.0,2.0,42,0.00,,CLR,0.00,VWS V14.01,2013-03-03 15:07:00,
2013-03-03 08:12:00,42.6,20.6,30.01,NNE,33,0.0,2.0,41,0.00,,CLR,0.00,VWS V14.01,2013-03-03 15:12:00,
2013-03-03 08:17:00,42.4,23.1,30.01,NW,311,1.0,2.0,46,0.00,,CLR,0.00,VWS V14.01,2013-03-03 15:17:00,
2013-03-03 08:22:00,42.6,21.7,30.01,NW,319,2.0,2.0,43,0.00,,CLR,0.00,VWS V14.01,2013-03-03 15:22:00,
2013-03-03 08:27:00,42.6,22.2,30.01,NNW,336,2.0,2.0,44,0.00,,CLR,0.00,VWS V14.01,2013-03-03 15:27:00,
2013-03-03 08:30:00,48.1,18.9,29.97,NNW,335,2.0,4.0,31,0.00,,OVC120,0.00,VWS V14.01,2013-03-03 15:30:00,
2013-03-03 08:32:00,42.8,21.9,30.00,NE,44,0.0,3.0,43,0.00,,CLR,0.00,VWS V14.01,2013-03-03 15:32:00,
2013-03-03 08:37:00,43.4,21.3,30.00,NE,36,1.0,4.0,41,0.00,,CLR,0.00,VWS V14.01,2013-03-03 15:37:00,
2013-03-03 08:42:00,44.1,21.9,30.00,NE,47,0.0,4.0,41,0.00,,CLR,0.00,VWS V14.01,2013-03-03 15:42:00,
2013-03-03 08:47:00,45.3,21.8,29.99,East,79,0.0,4.0,39,0.00,,CLR,0.00,VWS V14.01,2013-03-03 15:47:00,
2013-03-03 08:52:00,46.5,21.6,29.99,NNW,340,3.0,4.0,37,0.00,,CLR,0.00,VWS V14.01,2013-03-03 15:52:00,
2013-03-03 08:57:00,46.5,21.6,29.98,North,6,0.0,4.0,37,0.00,,CLR,0.00,VWS V14.01,2013-03-03 15:57:00,
2013-03-03 09:00:00,47.9,20.9,29.95,WNW,287,2.0,5.0,34,0.00,,OVC120,0.00,VWS V14.01,2013-03-03 16:00:00,
2013-03-03 09:02:00,46.9,21.4,29.97,ENE,71,2.0,3.0,36,0.00,,CLR,0.00,VWS V14.01,2013-03-03 16:02:00,
2013-03-03 09:07:00,47.2,21.0,29.97,ESE,118,1.0,4.0,35,0.00,,CLR,0.00,VWS V14.01,2013-03-03 16:07:00,
2013-03-03 09:12:00,47.5,20.5,29.97,NNW,345,2.0,4.0,34,0.00,,CLR,0.00,VWS V14.01,2013-03-03 16:12:00,
2013-03-03 09:17:00,47.9,20.9,29.97,NNW,330,1.0,4.0,34,0.00,,CLR,0.00,VWS V14.01,2013-03-03 16:17:00,
2013-03-03 09:22:00,48.0,20.3,29.96,NNW,334,1.0,4.0,33,0.00,,CLR,0.00,VWS V14.01,2013-03-03 16:22:00,
2013-03-03 09:27:00,48.2,19.0,29.96,WNW,297,1.0,4.0,31,0.00,,CLR,0.00,VWS V14.01,2013-03-03 16:27:00,
2013-03-03 09:30:00,50.1,19.1,29.93,WNW,290,4.0,8.0,29,0.00,,OVC120,0.00,VWS V14.01,2013-03-03 16:30:00,
2013-03-03 09:32:00,48.3,19.8,29.96,NNW,329,1.0,3.0,32,0.00,,CLR,0.00,VWS V14.01,2013-03-03 16:32:00,
2013-03-03 09:37:00,48.5,20.0,29.96,North,9,0.0,3.0,32,0.00,,CLR,0.00,VWS V14.01,2013-03-03 16:37:00,
2013-03-03 09:43:00,48.4,19.9,29.96,West,263,0.0,4.0,32,0.00,,CLR,0.00,VWS V14.01,2013-03-03 16:43:00,
2013-03-03 09:48:00,48.2,20.5,29.96,WNW,300,1.0,5.0,33,0.00,,CLR,0.00,VWS V14.01,2013-03-03 16:48:00,
2013-03-03 09:53:00,48.1,21.1,29.95,West,274,4.0,5.0,34,0.00,,CLR,0.00,VWS V14.01,2013-03-03 16:53:00,
2013-03-03 09:58:00,47.9,20.9,29.95,WNW,301,4.0,5.0,34,0.00,,CLR,0.00,VWS V14.01,2013-03-03 16:58:00,
2013-03-03 10:00:00,53.0,18.1,29.91,WSW,248,14.0,17.0,25,0.00,,OVC120,0.00,VWS V14.01,2013-03-03 17:00:00,
2013-03-03 10:03:00,47.8,21.5,29.95,West,277,2.0,6.0,35,0.00,,CLR,0.00,VWS V14.01,2013-03-03 17:03:00,
2013-03-03 10:08:00,48.1,20.4,29.94,WNW,296,0.0,6.0,33,0.00,,CLR,0.00,VWS V14.01,2013-03-03 17:08:00,
2013-03-03 10:13:00,48.7,20.2,29.94,West,271,4.0,6.0,32,0.00,,CLR,0.00,VWS V14.01,2013-03-03 17:13:00,
2013-03-03 10:18:00,49.0,20.4,29.93,WNW,291,2.0,6.0,32,0.00,,CLR,0.00,VWS V14.01,2013-03-03 17:18:00,
2013-03-03 10:23:00,49.3,20.0,29.93,West,276,4.0,6.0,31,0.00,,CLR,0.00,VWS V14.01,2013-03-03 17:23:00,
2013-03-03 10:28:00,50.1,19.1,29.93,West,259,7.0,8.0,29,0.00,,CLR,0.00,VWS V14.01,2013-03-03 17:28:00,
2013-03-03 10:30:00,53.3,17.5,29.88,SW,236,16.0,21.0,24,0.00,,OVC120,0.00,VWS V14.01,2013-03-03 17:30:00,
2013-03-03 10:33:00,50.6,19.5,29.92,WNW,283,4.0,7.0,29,0.00,,CLR,0.00,VWS V14.01,2013-03-03 17:33:00,
2013-03-03 10:38:00,51.3,19.3,29.92,West,278,2.0,7.0,28,0.00,,CLR,0.00,VWS V14.01,2013-03-03 17:38:00,
2013-03-03 10:43:00,51.8,18.9,29.92,WNW,284,7.0,7.0,27,0.00,,CLR,0.00,VWS V14.01,2013-03-03 17:43:00,
2013-03-03 10:48:00,52.2,18.4,29.92,WNW,290,11.0,15.0,26,0.00,,CLR,0.00,VWS V14.01,2013-03-03 17:48:00,
2013-03-03 10:53:00,52.2,18.4,29.92,West,280,12.0,17.0,26,0.00,,CLR,0.00,VWS V14.01,2013-03-03 17:53:00,
2013-03-03 10:58:00,53.0,18.1,29.91,SW,231,11.0,17.0,25,0.00,,CLR,0.00,VWS V14.01,2013-03-03 17:58:00,
2013-03-03 11:00:00,54.3,14.1,29.85,SW,226,12.0,22.0,20,0.00,,OVC120,0.00,VWS V14.01,2013-03-03 18:00:00,
2013-03-03 11:03:00,52.9,17.1,29.91,WSW,253,13.0,20.0,24,0.00,,CLR,0.00,VWS V14.01,2013-03-03 18:03:00,
2013-03-03 11:08:00,53.4,17.5,29.91,SW,236,14.0,20.0,24,0.00,,CLR,0.00,VWS V14.01,2013-03-03 18:08:00,
2013-03-03 11:13:00,53.2,17.4,29.90,WSW,238,11.0,20.0,24,0.00,,CLR,0.00,VWS V14.01,2013-03-03 18:13:00,
2013-03-03 11:18:00,53.2,18.3,29.90,West,280,10.0,21.0,25,0.00,,CLR,0.00,VWS V14.01,2013-03-03 18:18:00,
2013-03-03 11:23:00,53.7,18.7,29.89,SW,233,15.0,21.0,25,0.00,,CLR,0.00,VWS V14.01,2013-03-03 18:23:00,
2013-03-03 11:28:00,53.4,17.5,29.88,WSW,253,15.0,21.0,24,0.00,,CLR,0.00,VWS V14.01,2013-03-03 18:28:00,
2013-03-03 11:30:00,54.4,14.2,29.83,WSW,245,6.0,22.0,20,0.00,,OVC120,0.00,VWS V14.01,2013-03-03 18:30:00,
2013-03-03 11:33:00,53.3,16.5,29.88,West,264,9.0,19.0,23,0.00,,CLR,0.00,VWS V14.01,2013-03-03 18:33:00,
2013-03-03 11:38:00,53.7,17.8,29.88,SW,217,14.0,19.0,24,0.00,,CLR,0.00,VWS V14.01,2013-03-03 18:38:00,
2013-03-03 11:43:00,54.0,17.1,29.87,WSW,256,14.0,22.0,23,0.00,,CLR,0.00,VWS V14.01,2013-03-03 18:43:00,
2013-03-03 11:48:00,53.6,16.7,29.87,West,262,10.0,22.0,23,0.00,,CLR,0.00,VWS V14.01,2013-03-03 18:48:00,
2013-03-03 11:54:00,54.4,17.4,29.86,SW,225,10.0,22.0,23,0.00,,CLR,0.00,VWS V14.01,2013-03-03 18:54:00,
2013-03-03 11:59:00,54.4,14.2,29.85,WSW,246,18.0,22.0,20,0.00,,CLR,0.00,VWS V14.01,2013-03-03 18:59:00,
2013-03-03 12:00:00,55.4,15.0,29.82,SSW,204,5.0,20.0,20,0.00,,OVC120,0.00,VWS V14.01,2013-03-03 19:00:00,
2013-03-03 12:04:00,54.2,15.1,29.85,WSW,248,10.0,21.0,21,0.00,,CLR,0.00,VWS V14.01,2013-03-03 19:04:00,
2013-03-03 12:09:00,54.4,15.3,29.84,West,273,11.0,21.0,21,0.00,,CLR,0.00,VWS V14.01,2013-03-03 19:09:00,
2013-03-03 12:14:00,54.6,15.5,29.84,West,280,12.0,21.0,21,0.00,,CLR,0.00,VWS V14.01,2013-03-03 19:14:00,
2013-03-03 12:19:00,55.4,15.0,29.85,West,276,12.0,21.0,20,0.00,,CLR,0.00,VWS V14.01,2013-03-03 19:19:00,
2013-03-03 12:24:00,54.3,15.2,29.84,WNW,295,6.0,22.0,21,0.00,,CLR,0.00,VWS V14.01,2013-03-03 19:24:00,
2013-03-03 12:29:00,54.4,14.2,29.83,West,264,9.0,22.0,20,0.00,,CLR,0.00,VWS V14.01,2013-03-03 19:29:00,
2013-03-03 12:30:00,55.9,16.5,29.82,WSW,252,11.0,20.0,21,0.00,,OVC120,0.00,VWS V14.01,2013-03-03 19:30:00,
2013-03-03 12:34:00,54.0,15.0,29.83,NW,304,6.0,18.0,21,0.00,,CLR,0.00,VWS V14.01,2013-03-03 19:34:00,
2013-03-03 12:39:00,54.9,15.7,29.83,WSW,248,8.0,20.0,21,0.00,,CLR,0.00,VWS V14.01,2013-03-03 19:39:00,
2013-03-03 12:44:00,55.7,15.3,29.82,SSW,205,7.0,20.0,20,0.00,,CLR,0.00,VWS V14.01,2013-03-03 19:44:00,
2013-03-03 12:49:00,55.8,16.5,29.81,West,277,16.0,20.0,21,0.00,,CLR,0.00,VWS V14.01,2013-03-03 19:49:00,
2013-03-03 12:54:00,55.2,16.0,29.82,WSW,238,12.0,20.0,21,0.00,,CLR,0.00,VWS V14.01,2013-03-03 19:54:00,
2013-03-03 12:59:00,55.4,15.0,29.82,SSW,204,5.0,20.0,20,0.00,,CLR,0.00,VWS V14.01,2013-03-03 19:59:00,
2013-03-03 13:00:00,54.6,13.2,29.79,West,271,14.0,24.0,19,0.00,,OVC120,0.00,VWS V14.01,2013-03-03 20:00:00,
2013-03-03 13:04:00,55.8,15.4,29.82,WSW,245,14.0,14.0,20,0.00,,CLR,0.00,VWS V14.01,2013-03-03 20:04:00,
2013-03-03 13:09:00,55.9,16.5,29.82,WSW,257,11.0,19.0,21,0.00,,CLR,0.00,VWS V14.01,2013-03-03 20:09:00,
2013-03-03 13:15:00,56.3,16.9,29.82,West,269,13.0,19.0,21,0.00,,CLR,0.00,VWS V14.01,2013-03-03 20:15:00,
2013-03-03 13:20:00,56.1,16.7,29.82,West,265,11.0,19.0,21,0.00,,CLR,0.00,VWS V14.01,2013-03-03 20:20:00,
2013-03-03 13:25:00,55.6,17.4,29.82,WSW,238,8.0,20.0,22,0.00,,CLR,0.00,VWS V14.01,2013-03-03 20:25:00,
2013-03-03 13:30:00,55.9,16.5,29.82,West,263,12.0,16.0,21,0.00,,CLR,0.00,VWS V14.01,2013-03-03 20:30:00,
2013-03-03 13:35:00,56.2,15.7,29.82,WSW,253,12.0,19.0,20,0.00,,CLR,0.00,VWS V14.01,2013-03-03 20:35:00,
2013-03-03 13:40:00,55.7,16.4,29.80,West,269,9.0,24.0,21,0.00,,CLR,0.00,VWS V14.01,2013-03-03 20:40:00,
2013-03-03 13:45:00,55.6,12.8,29.79,West,269,9.0,24.0,18,0.00,,CLR,0.00,VWS V14.01,2013-03-03 20:45:00,
2013-03-03 13:50:00,55.1,12.4,29.79,WNW,293,11.0,24.0,18,0.00,,FEW120,0.00,VWS V14.01,2013-03-03 20:50:00,
2013-03-03 13:55:00,55.2,12.5,29.79,WSW,250,14.0,24.0,18,0.00,,FEW120,0.00,VWS V14.01,2013-03-03 20:55:00,
2013-03-03 14:00:00,54.4,13.0,29.79,WNW,288,12.0,16.0,19,0.00,,FEW120,0.00,VWS V14.01,2013-03-03 21:00:00,
2013-03-03 14:05:00,53.8,12.5,29.79,West,267,9.0,20.0,19,0.00,,SCT120,0.00,VWS V14.01,2013-03-03 21:05:00,
2013-03-03 14:10:00,53.5,13.4,29.79,West,276,7.0,20.0,20,0.00,,SCT120,0.00,VWS V14.01,2013-03-03 21:10:00,
2013-03-03 14:15:00,53.6,13.5,29.78,West,269,9.0,20.0,20,0.00,,SCT120,0.00,VWS V14.01,2013-03-03 21:15:00,
2013-03-03 14:20:00,53.6,13.5,29.78,WSW,255,10.0,20.0,20,0.00,,SCT120,0.00,VWS V14.01,2013-03-03 21:20:00,
2013-03-03 14:26:00,53.7,13.6,29.78,West,271,5.0,20.0,20,0.00,,SCT120,0.00,VWS V14.01,2013-03-03 21:26:00,
2013-03-03 14:30:00,51.7,13.0,29.78,West,267,11.0,23.0,21,0.00,,OVC120,0.00,VWS V14.01,2013-03-03 21:30:00,
2013-03-03 14:31:00,53.6,14.6,29.77,WSW,249,10.0,11.0,21,0.00,,BKN110,0.00,VWS V14.01,2013-03-03 21:31:00,
2013-03-03 14:36:00,53.5,15.6,29.78,West,277,6.0,12.0,22,0.00,,BKN110,0.00,VWS V14.01,2013-03-03 21:36:00,
2013-03-03 14:41:00,53.4,15.5,29.78,WNW,296,8.0,12.0,22,0.00,,BKN110,0.00,VWS V14.01,2013-03-03 21:41:00,
2013-03-03 14:46:00,53.2,14.3,29.77,SSW,204,6.0,13.0,21,0.00,,OVC110,0.00,VWS V14.01,2013-03-03 21:46:00,
2013-03-03 14:51:00,53.2,15.4,29.77,WNW,299,5.0,15.0,22,0.00,,OVC110,0.00,VWS V14.01,2013-03-03 21:51:00,
2013-03-03 14:56:00,53.0,14.1,29.77,SSW,204,8.0,15.0,21,0.00,,OVC110,0.00,VWS V14.01,2013-03-03 21:56:00,
2013-03-03 15:00:00,50.5,12.0,29.80,West,279,13.0,21.0,21,0.00,,OVC120,0.00,VWS V14.01,2013-03-03 22:00:00,
2013-03-03 15:01:00,52.8,12.9,29.77,SW,236,9.0,23.0,20,0.00,,OVC100,0.00,VWS V14.01,2013-03-03 22:01:00,
2013-03-03 15:06:00,52.4,12.5,29.77,WSW,242,12.0,23.0,20,0.00,,OVC100,0.00,VWS V14.01,2013-03-03 22:06:00,
2013-03-03 15:11:00,52.1,12.3,29.77,WSW,248,14.0,23.0,20,0.00,,OVC100,0.00,VWS V14.01,2013-03-03 22:11:00,
2013-03-03 15:16:00,52.0,12.2,29.78,SW,232,15.0,23.0,20,0.00,,OVC100,0.00,VWS V14.01,2013-03-03 22:16:00,
2013-03-03 15:21:00,51.9,12.1,29.78,West,281,16.0,23.0,20,0.00,,OVC100,0.00,VWS V14.01,2013-03-03 22:21:00,
2013-03-03 15:26:00,51.8,13.1,29.78,WNW,287,8.0,23.0,21,0.00,,OVC100,0.00,VWS V14.01,2013-03-03 22:26:00,
2013-03-03 15:30:00,50.1,12.8,29.80,West,264,8.0,19.0,22,0.00,,OVC120,0.00,VWS V14.01,2013-03-03 22:30:00,
2013-03-03 15:31:00,51.6,11.9,29.79,West,263,11.0,19.0,20,0.00,,OVC090,0.00,VWS V14.01,2013-03-03 22:31:00,
2013-03-03 15:36:00,51.4,11.7,29.79,West,276,9.0,19.0,20,0.00,,OVC090,0.00,VWS V14.01,2013-03-03 22:36:00,
2013-03-03 15:42:00,51.1,12.5,29.79,WNW,285,7.0,19.0,21,0.00,,OVC090,0.00,VWS V14.01,2013-03-03 22:42:00,
2013-03-03 15:47:00,50.8,13.3,29.80,West,269,6.0,19.0,22,0.00,,OVC090,0.00,VWS V14.01,2013-03-03 22:47:00,
2013-03-03 15:52:00,50.7,13.3,29.80,WNW,288,10.0,19.0,22,0.00,,OVC090,0.00,VWS V14.01,2013-03-03 22:52:00,
2013-03-03 15:57:00,50.6,12.1,29.80,WSW,256,11.0,21.0,21,0.00,,OVC090,0.00,VWS V14.01,2013-03-03 22:57:00,
2013-03-03 16:00:00,49.2,13.0,29.79,WNW,290,5.0,14.0,23,0.00,,OVC120,0.00,VWS V14.01,2013-03-03 23:00:00,
2013-03-03 16:02:00,50.4,11.9,29.80,WSW,250,10.0,18.0,21,0.00,,OVC090,0.00,VWS V14.01,2013-03-03 23:02:00,
2013-03-03 16:07:00,50.4,13.0,29.80,West,275,4.0,19.0,22,0.00,,OVC090,0.00,VWS V14.01,2013-03-03 23:07:00,
2013-03-03 16:12:00,50.3,12.9,29.80,WNW,297,7.0,19.0,22,0.00,,OVC090,0.00,VWS V14.01,2013-03-03 23:12:00,
2013-03-03 16:17:00,50.1,12.8,29.80,West,273,7.0,19.0,22,0.00,,OVC090,0.00,VWS V14.01,2013-03-03 23:17:00,
2013-03-03 16:22:00,50.0,12.7,29.80,West,281,11.0,19.0,22,0.00,,OVC090,0.00,VWS V14.01,2013-03-03 23:22:00,
2013-03-03 16:27:00,50.0,12.7,29.80,West,271,7.0,19.0,22,0.00,,OVC090,0.00,VWS V14.01,2013-03-03 23:27:00,
2013-03-03 16:30:00,48.7,12.6,29.79,West,267,5.0,15.0,23,0.00,,OVC120,0.00,VWS V14.01,2013-03-03 23:30:00,
2013-03-03 16:32:00,50.3,12.9,29.80,WSW,248,10.0,14.0,22,0.00,,OVC090,0.00,VWS V14.01,2013-03-03 23:32:00,
2013-03-03 16:37:00,50.1,12.8,29.80,West,270,5.0,14.0,22,0.00,,OVC090,0.00,VWS V14.01,2013-03-03 23:37:00,
2013-03-03 16:42:00,50.0,12.7,29.79,WNW,291,7.0,14.0,22,0.00,,OVC090,0.00,VWS V14.01,2013-03-03 23:42:00,
2013-03-03 16:47:00,49.6,13.3,29.79,West,276,3.0,14.0,23,0.00,,OVC090,0.00,VWS V14.01,2013-03-03 23:47:00,
2013-03-03 16:52:00,49.4,12.2,29.79,West,278,5.0,14.0,22,0.00,,OVC090,0.00,VWS V14.01,2013-03-03 23:52:00,
2013-03-03 16:58:00,49.2,13.0,29.79,SW,222,9.0,14.0,23,0.00,,OVC090,0.00,VWS V14.01,2013-03-03 23:58:00,
2013-03-03 17:00:00,48.0,11.0,29.79,WSW,257,10.0,14.0,22,0.00,,OVC120,0.00,VWS V14.01,2013-03-04 00:00:00,
2013-03-03 17:03:00,49.1,12.9,29.79,West,280,8.0,11.0,23,0.00,,OVC090,0.00,VWS V14.01,2013-03-04 00:03:00,
2013-03-03 17:08:00,49.1,12.9,29.79,West,260,10.0,12.0,23,0.00,,OVC090,0.00,VWS V14.01,2013-03-04 00:08:00,
2013-03-03 17:13:00,49.0,12.8,29.79,West,270,9.0,13.0,23,0.00,,OVC090,0.00,VWS V14.01,2013-03-04 00:13:00,
2013-03-03 17:18:00,48.8,13.6,29.79,WSW,242,11.0,13.0,24,0.00,,OVC090,0.00,VWS V14.01,2013-03-04 00:18:00,
2013-03-03 17:23:00,48.8,11.7,29.79,WNW,291,6.0,15.0,22,0.00,,OVC090,0.00,VWS V14.01,2013-03-04 00:23:00,
2013-03-03 17:28:00,48.7,11.6,29.79,WSW,246,5.0,15.0,22,0.00,,OVC090,0.00,VWS V14.01,2013-03-04 00:28:00,
2013-03-03 17:30:00,46.5,11.7,29.79,WSW,242,6.0,14.0,24,0.00,,OVC120,0.00,VWS V14.01,2013-03-04 00:30:00,
2013-03-03 17:33:00,48.6,12.5,29.79,SW,235,5.0,12.0,23,0.00,,OVC090,0.00,VWS V14.01,2013-03-04 00:33:00,
2013-03-03 17:38:00,49.1,11.9,29.79,SW,228,11.0,14.0,22,0.00,,OVC090,0.00,VWS V14.01,2013-03-04 00:38:00,
2013-03-03 17:43:00,49.1,11.9,29.79,WSW,250,9.0,14.0,22,0.00,,OVC090,0.00,VWS V14.01,2013-03-04 00:43:00,
2013-03-03 17:48:00,48.6,11.5,29.79,SW,236,6.0,14.0,22,0.00,,OVC080,0.00,VWS V14.01,2013-03-04 00:48:00,
2013-03-03 17:53:00,48.2,10.1,29.79,WNW,287,7.0,14.0,21,0.00,,OVC080,0.00,VWS V14.01,2013-03-04 00:53:00,
2013-03-03 17:58:00,48.1,10.0,29.79,West,264,6.0,14.0,21,0.00,,OVC080,0.00,VWS V14.01,2013-03-04 00:58:00,
2013-03-03 18:00:00,45.6,12.7,29.79,SW,221,4.0,13.0,26,0.00,,OVC120,0.00,VWS V14.01,2013-03-04 01:00:00,
2013-03-03 18:03:00,47.8,10.8,29.79,WSW,255,13.0,14.0,22,0.00,,OVC070,0.00,VWS V14.01,2013-03-04 01:03:00,
2013-03-03 18:08:00,47.7,10.7,29.79,SW,221,4.0,14.0,22,0.00,,OVC070,0.00,VWS V14.01,2013-03-04 01:08:00,
2013-03-03 18:13:00,47.3,12.4,29.79,SW,236,3.0,14.0,24,0.00,,OVC070,0.00,VWS V14.01,2013-03-04 01:13:00,
2013-03-03 18:18:00,47.0,12.1,29.80,West,262,4.0,14.0,24,0.00,,OVC070,0.00,VWS V14.01,2013-03-04 01:18:00,
2013-03-03 18:23:00,46.8,11.9,29.79,West,267,7.0,14.0,24,0.00,,OVC070,0.00,VWS V14.01,2013-03-04 01:23:00,
2013-03-03 18:28:00,46.6,11.8,29.79,West,259,6.0,14.0,24,0.00,,OVC070,0.00,VWS V14.01,2013-03-04 01:28:00,
2013-03-03 18:30:00,44.3,14.1,29.80,West,267,3.0,11.0,29,0.00,,OVC120,0.00,VWS V14.01,2013-03-04 01:30:00,
2013-03-03 18:33:00,46.4,11.6,29.79,WSW,246,4.0,11.0,24,0.00,,OVC120,0.00,VWS V14.01,2013-03-04 01:33:00,
2013-03-03 18:38:00,46.3,12.4,29.79,WSW,243,7.0,13.0,25,0.00,,OVC120,0.00,VWS V14.01,2013-03-04 01:38:00,
2013-03-03 18:43:00,46.2,12.3,29.79,WSW,250,6.0,13.0,25,0.00,,OVC120,0.00,VWS V14.01,2013-03-04 01:43:00,
2013-03-03 18:48:00,46.0,12.2,29.79,WSW,257,7.0,13.0,25,0.00,,OVC120,0.00,VWS V14.01,2013-03-04 01:48:00,
2013-03-03 18:53:00,45.7,12.8,29.79,SW,229,6.0,13.0,26,0.00,,OVC120,0.00,VWS V14.01,2013-03-04 01:53:00,
2013-03-03 18:58:00,45.6,13.6,29.79,WSW,243,7.0,13.0,27,0.00,,OVC120,0.00,VWS V14.01,2013-03-04 01:58:00,
2013-03-03 19:00:00,43.4,14.1,29.79,South,173,1.0,8.0,30,0.00,,OVC120,0.00,VWS V14.01,2013-03-04 02:00:00,
2013-03-03 19:03:00,45.3,13.3,29.79,WSW,243,5.0,8.0,27,0.00,,OVC120,0.00,VWS V14.01,2013-03-04 02:03:00,
2013-03-03 19:08:00,45.2,13.2,29.80,SSW,212,5.0,11.0,27,0.00,,OVC120,0.00,VWS V14.01,2013-03-04 02:08:00,
2013-03-03 19:13:00,45.0,13.1,29.80,SW,218,4.0,11.0,27,0.00,,OVC120,0.00,VWS V14.01,2013-03-04 02:13:00,
2013-03-03 19:19:00,44.7,13.6,29.79,SW,224,3.0,11.0,28,0.00,,OVC120,0.00,VWS V14.01,2013-03-04 02:19:00,
2013-03-03 19:24:00,44.4,14.1,29.79,SW,229,3.0,11.0,29,0.00,,OVC120,0.00,VWS V14.01,2013-03-04 02:24:00,
2013-03-03 19:29:00,44.3,14.1,29.80,SW,231,5.0,11.0,29,0.00,,OVC120,0.00,VWS V14.01,2013-03-04 02:29:00,
2013-03-03 19:30:00,43.7,14.3,29.79,SE,145,1.0,6.0,30,0.00,,OVC120,0.00,VWS V14.01,2013-03-04 02:30:00,
2013-03-03 19:34:00,44.1,13.9,29.80,SSW,212,3.0,5.0,29,0.00,,BKN120,0.00,VWS V14.01,2013-03-04 02:34:00,
2013-03-03 19:39:00,43.9,14.5,29.79,SW,228,1.0,6.0,30,0.00,,BKN120,0.00,VWS V14.01,2013-03-04 02:39:00,
2013-03-03 19:44:00,43.8,14.4,29.79,SW,233,1.0,8.0,30,0.00,,BKN120,0.00,VWS V14.01,2013-03-04 02:44:00,
2013-03-03 19:49:00,43.7,14.3,29.79,WSW,255,1.0,8.0,30,0.00,,BKN120,0.00,VWS V14.01,2013-03-04 02:49:00,
2013-03-03 19:54:00,43.7,14.3,29.79,SW,218,1.0,8.0,30,0.00,,BKN120,0.00,VWS V14.01,2013-03-04 02:54:00,
2013-03-03 19:59:00,43.4,14.1,29.79,South,173,1.0,8.0,30,0.00,,BKN120,0.00,VWS V14.01,2013-03-04 02:59:00,
2013-03-03 20:00:00,42.9,15.1,29.80,South,174,2.0,7.0,32,0.00,,OVC120,0.00,VWS V14.01,2013-03-04 03:00:00,
2013-03-03 20:04:00,43.4,14.1,29.79,South,173,3.0,5.0,30,0.00,,FEW120,0.00,VWS V14.01,2013-03-04 03:04:00,
2013-03-03 20:09:00,43.5,14.1,29.79,SSW,194,3.0,5.0,30,0.00,,FEW120,0.00,VWS V14.01,2013-03-04 03:09:00,
2013-03-03 20:14:00,43.5,14.9,29.79,SSW,204,5.0,6.0,31,0.00,,FEW120,0.00,VWS V14.01,2013-03-04 03:14:00,
2013-03-03 20:19:00,43.7,15.1,29.79,SSW,200,1.0,6.0,31,0.00,,FEW120,0.00,VWS V14.01,2013-03-04 03:19:00,
2013-03-03 20:24:00,43.8,14.4,29.79,SSE,155,3.0,6.0,30,0.00,,FEW120,0.00,VWS V14.01,2013-03-04 03:24:00,
2013-03-03 20:29:00,43.7,14.3,29.79,SSE,148,1.0,1.0,30,0.00,,FEW120,0.00,VWS V14.01,2013-03-04 03:29:00,
2013-03-03 20:30:00,43.0,15.2,29.79,SW,215,1.0,7.0,32,0.00,,OVC120,0.00,VWS V14.01,2013-03-04 03:30:00,
2013-03-03 20:34:00,43.6,15.0,29.79,SSW,201,2.0,4.0,31,0.00,,FEW100,0.00,VWS V14.01,2013-03-04 03:34:00,
2013-03-03 20:39:00,43.5,14.9,29.79,South,173,1.0,4.0,31,0.00,,FEW100,0.00,VWS V14.01,2013-03-04 03:39:00,
2013-03-03 20:44:00,43.3,14.7,29.79,South,172,3.0,4.0,31,0.00,,FEW100,0.00,VWS V14.01,2013-03-04 03:44:00,
2013-03-03 20:49:00,43.2,15.4,29.80,SSW,208,1.0,7.0,32,0.00,,FEW100,0.00,VWS V14.01,2013-03-04 03:49:00,
2013-03-03 20:54:00,43.1,15.3,29.80,SSW,212,0.0,7.0,32,0.00,,FEW100,0.00,VWS V14.01,2013-03-04 03:54:00,
2013-03-03 20:59:00,42.9,15.1,29.80,SW,231,2.0,4.0,32,0.00,,FEW100,0.00,VWS V14.01,2013-03-04 03:59:00,
2013-03-03 21:00:00,42.2,15.2,29.79,SE,126,0.0,5.0,33,0.00,,OVC120,0.00,VWS V14.01,2013-03-04 04:00:00,
2013-03-03 21:05:00,43.0,15.2,29.80,WSW,257,5.0,6.0,32,0.00,,CLR,0.00,VWS V14.01,2013-03-04 04:05:00,
2013-03-03 21:10:00,43.3,15.4,29.80,SSW,210,2.0,7.0,32,0.00,,CLR,0.00,VWS V14.01,2013-03-04 04:10:00,
2013-03-03 21:15:00,43.3,15.4,29.80,SW,214,2.0,7.0,32,0.00,,CLR,0.00,VWS V14.01,2013-03-04 04:15:00,
2013-03-03 21:20:00,43.1,15.3,29.80,SW,226,1.0,7.0,32,0.00,,CLR,0.00,VWS V14.01,2013-03-04 04:20:00,
2013-03-03 21:25:00,43.1,15.3,29.79,SW,218,1.0,7.0,32,0.00,,CLR,0.00,VWS V14.01,2013-03-04 04:25:00,
2013-03-03 21:30:00,43.0,15.2,29.79,SW,215,0.0,1.0,32,0.00,,CLR,0.00,VWS V14.01,2013-03-04 04:30:00,
2013-03-03 21:35:00,42.8,15.7,29.79,SSW,212,0.0,3.0,33,0.00,,BKN100,0.00,VWS V14.01,2013-03-04 04:35:00,
2013-03-03 21:40:00,42.6,15.5,29.79,SW,236,2.0,3.0,33,0.00,,BKN100,0.00,VWS V14.01,2013-03-04 04:40:00,
2013-03-03 21:45:00,42.6,15.5,29.79,SSW,195,0.0,3.0,33,0.00,,BKN100,0.00,VWS V14.01,2013-03-04 04:45:00,
2013-03-03 21:50:00,42.7,15.6,29.79,SW,226,0.0,5.0,33,0.00,,BKN090,0.00,VWS V14.01,2013-03-04 04:50:00,
2013-03-03 21:55:00,42.4,15.4,29.79,SW,219,1.0,5.0,33,0.00,,BKN090,0.00,VWS V14.01,2013-03-04 04:55:00,
2013-03-03 22:00:00,42.1,15.1,29.79,SE,131,0.0,0.0,33,0.00,,BKN090,0.00,VWS V14.01,2013-03-04 05:00:00,
2013-03-03 22:01:00,42.0,15.0,29.79,SE,131,0.0,0.0,33,0.00,,CLR,0.00,VWS V14.01,2013-03-04 05:01:00,
2013-03-03 22:03:00,41.9,15.6,29.79,ESE,117,0.0,0.0,34,0.00,,CLR,0.00,VWS V14.01,2013-03-04 05:03:00,
2013-03-03 22:08:00,41.7,15.4,29.78,SE,145,5.0,6.0,34,0.00,,CLR,0.00,VWS V14.01,2013-03-04 05:08:00,
2013-03-03 22:13:00,42.2,15.2,29.78,SE,135,1.0,6.0,33,0.00,,CLR,0.00,VWS V14.01,2013-03-04 05:13:00,
2013-03-03 22:16:00,42.2,15.9,29.78,SSW,212,5.0,6.0,34,0.00,,CLR,0.00,VWS V14.01,2013-03-04 05:16:00,
2013-03-03 22:21:00,42.3,15.9,29.78,SSE,156,0.0,6.0,34,0.00,,CLR,0.00,VWS V14.01,2013-03-04 05:21:00,
2013-03-03 22:26:00,42.1,16.4,29.78,ESE,117,3.0,6.0,35,0.00,,CLR,0.00,VWS V14.01,2013-03-04 05:26:00,
2013-03-03 22:30:00,39.6,17.3,29.77,SE,129,1.0,4.0,40,0.00,,OVC120,0.00,VWS V14.01,2013-03-04 05:30:00,
2013-03-03 22:31:00,42.1,15.8,29.78,SE,139,2.0,3.0,34,0.00,,CLR,0.00,VWS V14.01,2013-03-04 05:31:00,
2013-03-03 22:36:00,42.4,16.0,29.78,SE,146,0.0,3.0,34,0.00,,CLR,0.00,VWS V14.01,2013-03-04 05:36:00,
2013-03-03 22:41:00,42.3,15.9,29.78,WSW,248,2.0,3.0,34,0.00,,CLR,0.00,VWS V14.01,2013-03-04 05:41:00,
2013-03-03 22:47:00,41.6,16.6,29.78,WNW,287,0.0,3.0,36,0.00,,BKN070,0.00,VWS V14.01,2013-03-04 05:47:00,
2013-03-03 22:52:00,41.1,16.2,29.78,ENE,70,2.0,4.0,36,0.00,,BKN070,0.00,VWS V14.01,2013-03-04 05:52:00,
2013-03-03 22:57:00,41.5,16.5,29.78,West,262,0.0,4.0,36,0.00,,BKN070,0.00,VWS V14.01,2013-03-04 05:57:00,
2013-03-03 23:00:00,40.4,17.4,29.77,ENE,74,0.0,4.0,39,0.00,,OVC120,0.00,VWS V14.01,2013-03-04 06:00:00,
2013-03-03 23:02:00,41.6,16.0,29.78,West,262,0.0,0.0,35,0.00,,SCT070,0.00,VWS V14.01,2013-03-04 06:02:00,
2013-03-03 23:07:00,41.2,16.3,29.77,West,262,0.0,0.0,36,0.00,,SCT070,0.00,VWS V14.01,2013-03-04 06:07:00,
2013-03-03 23:12:00,40.7,15.8,29.78,West,262,0.0,0.0,36,0.00,,SCT070,0.00,VWS V14.01,2013-03-04 06:12:00,
2013-03-03 23:17:00,40.5,16.9,29.77,ESE,122,1.0,2.0,38,0.00,,SCT070,0.00,VWS V14.01,2013-03-04 06:17:00,
2013-03-03 23:22:00,40.1,18.3,29.77,ESE,115,4.0,4.0,41,0.00,,SCT070,0.00,VWS V14.01,2013-03-04 06:22:00,
2013-03-03 23:27:00,39.6,17.9,29.77,ESE,122,2.0,4.0,41,0.00,,SCT070,0.00,VWS V14.01,2013-03-04 06:27:00,
2013-03-03 23:30:00,41.4,20.6,29.76,WNW,282,2.0,7.0,43,0.00,,OVC120,0.00,VWS V14.01,2013-03-04 06:30:00,
2013-03-03 23:32:00,39.7,18.0,29.77,SE,127,1.0,4.0,41,0.00,,FEW100,0.00,VWS V14.01,2013-03-04 06:32:00,
2013-03-03 23:37:00,39.8,18.0,29.77,East,100,2.0,4.0,41,0.00,,FEW100,0.00,VWS V14.01,2013-03-04 06:37:00,
2013-03-03 23:42:00,39.8,17.5,29.77,ESE,120,1.0,4.0,40,0.00,,FEW100,0.00,VWS V14.01,2013-03-04 06:42:00,
2013-03-03 23:47:00,39.9,17.5,29.77,SE,141,0.0,4.0,40,0.00,,BKN100,0.00,VWS V14.01,2013-03-04 06:47:00,
2013-03-03 23:52:00,40.4,18.0,29.76,ESE,120,0.0,4.0,40,0.00,,BKN100,0.00,VWS V14.01,2013-03-04 06:52:00,
2013-03-03 23:57:00,40.5,18.1,29.77,ENE,73,0.0,4.0,40,0.00,,BKN100,0.00,VWS V14.01,2013-03-04 06:57:00,